FW8483 Weather Reports


time (UTC)temp
C
wind
direction
speed
KPH
gust
KPH
rain 1hr
cm
rain 24hr
cm
rain mn
cm
humidity
%
barometer
mb
20260508041522 22 333 3.2 8.0 0.00 4.01 4.01 93 1014.3
20260508041008 22 323 1.6 9.7 0.00 4.01 4.01 94 1014.5
20260508040508 22 335 1.6 9.7 0.00 4.01 4.01 95 1014.4
20260508040025 22 11 3.2 9.7 0.00 4.01 4.01 95 1014.5
20260508035508 22 334 0.0 0.0 0.00 4.01 4.01 96 1014.4
20260508035007 22 296 0.0 0.0 0.00 4.01 4.01 96 1014.3
20260508034535 22 279 0.0 0.0 0.00 4.01 4.01 96 1014.5
20260508034003 22 309 0.0 0.0 0.00 4.01 4.01 96 1014.4
20260508033504 22 298 0.0 0.0 0.00 4.01 4.01 96 1014.4
20260508033017 22 297 0.0 0.0 0.00 4.01 4.01 96 1014.3
20260508032505 22 240 0.0 0.0 0.00 4.01 4.01 96 1014.2
20260508032003 22 240 0.0 0.0 0.00 4.01 4.01 96 1014.1
20260508031521 22 240 0.0 0.0 0.00 4.01 4.01 96 1014.0
20260508031007 22 240 0.0 0.0 0.00 4.01 4.01 95 1014.0
20260508030508 22 240 0.0 0.0 0.00 4.01 4.01 96 1013.8
20260508030025 22 240 0.0 0.0 0.00 4.01 4.01 95 1013.8
20260508025507 22 240 0.0 0.0 0.00 4.01 4.01 95 1013.7
20260508025008 22 240 0.0 0.0 0.00 4.01 4.01 95 1013.6
20260508024534 22 240 0.0 0.0 0.00 4.01 4.01 95 1013.5
20260508024006 22 240 0.0 0.0 0.00 4.01 4.01 96 1013.5
20260508023506 22 240 0.0 0.0 0.00 4.01 4.01 96 1013.6
20260508023015 22 240 0.0 0.0 0.00 4.01 4.01 95 1013.5
20260508022503 22 240 0.0 0.0 0.00 4.01 4.01 95 1013.6
20260508022004 22 240 0.0 0.0 0.00 4.01 4.01 95 1013.5
20260508021517 22 240 0.0 0.0 0.00 4.01 4.01 95 1013.4
20260508021007 22 240 0.0 0.0 0.00 4.01 4.01 94 1013.5
20260508020506 22 240 0.0 0.0 0.00 4.01 4.01 94 1013.4
20260508020023 22 240 0.0 0.0 0.00 4.01 4.01 94 1013.4
20260508015507 22 240 0.0 0.0 0.00 4.01 4.01 94 1013.4
20260508015010 22 240 0.0 0.0 0.00 4.01 4.01 94 1013.3
20260508014527 22 240 0.0 0.0 0.00 4.01 4.01 94 1013.4
20260508014008 22 240 0.0 0.0 0.00 4.01 4.01 94 1013.2
20260508013508 22 240 0.0 0.0 0.00 4.01 4.01 93 1013.2
20260508013028 22 240 0.0 0.0 0.00 4.01 4.01 93 1013.1
20260508012503 22 240 0.0 0.0 0.00 4.01 4.01 93 1012.9
20260508012003 23 240 0.0 0.0 0.00 4.01 4.01 93 1012.9
20260508011522 23 240 0.0 0.0 0.00 4.01 4.01 92 1012.9
20260508011010 23 240 0.0 0.0 0.00 4.01 4.01 92 1012.9
20260508010506 23 240 0.0 0.0 0.00 4.01 4.01 92 1012.9
20260508010022 23 240 0.0 0.0 0.00 4.01 4.01 92 1012.8
20260508005506 23 240 0.0 0.0 0.00 4.01 4.01 92 1012.8
20260508005007 23 240 0.0 0.0 0.00 4.01 4.01 92 1012.9
20260508004527 23 207 0.0 0.0 0.00 4.01 4.01 92 1012.8
20260508004009 23 206 0.0 0.0 0.00 4.01 4.01 92 1012.7
20260508003511 23 248 0.0 0.0 0.00 4.01 4.01 91 1012.8
20260508003027 23 248 0.0 0.0 0.00 4.01 4.01 91 1012.9
20260508002510 23 248 0.0 0.0 0.00 4.01 4.01 91 1012.9
20260508002011 23 248 0.0 1.6 0.00 4.01 4.01 91 1012.8
20260508001514 23 178 0.0 3.2 0.00 4.01 4.01 91 1012.7
20260508001003 23 261 0.0 3.2 0.00 4.01 4.01 90 1012.7
20260508000505 23 350 0.0 3.2 0.00 4.01 4.01 90 1012.8
20260508000021 23 265 0.0 3.2 0.00 4.01 4.01 90 1012.7
20260507235507 23 264 0.0 3.2 0.00 4.01 4.01 90 1012.6
20260507235007 23 263 0.0 3.2 0.00 4.01 4.01 90 1012.5
20260507234523 23 208 0.0 6.4 0.00 4.01 4.01 89 1012.5
20260507234008 23 252 0.0 6.4 0.00 4.01 4.01 89 1012.6
20260507233516 23 240 1.6 6.4 0.00 4.01 4.01 89 1012.7
20260507233032 24 282 1.6 6.4 0.00 4.01 4.01 89 1012.8
20260507232509 24 279 3.2 4.8 0.00 4.01 4.01 89 1012.8
20260507232009 24 292 0.0 6.4 0.00 4.01 4.01 89 1012.8
20260507231538 24 298 3.2 6.4 0.00 4.01 4.01 89 1012.9
20260507231011 24 288 1.6 6.4 0.00 4.01 4.01 88 1012.8
20260507230509 24 286 1.6 6.4 0.00 4.01 4.01 88 1012.8
20260507230019 24 293 1.6 4.8 0.00 4.01 4.01 88 1012.7
20260507225507 24 248 1.6 4.8 0.00 4.01 4.01 88 1012.7
20260507225007 24 264 1.6 4.8 0.00 4.01 4.01 88 1012.7
20260507224522 24 279 0.0 6.4 0.00 4.01 4.01 88 1012.8
20260507224007 24 258 1.6 9.7 0.00 4.01 4.01 87 1012.8
20260507223507 24 310 1.6 9.7 0.00 4.01 4.01 87 1012.8
20260507223026 25 255 3.2 9.7 0.00 4.01 4.01 87 1012.8
20260507222510 25 294 1.6 11.3 0.00 4.01 4.01 87 1012.8
20260507222009 25 312 0.0 11.3 0.00 4.01 4.01 88 1012.9
20260507221530 24 216 3.2 12.9 0.00 4.01 4.01 88 1012.8
20260507221013 24 252 3.2 14.5 0.00 4.01 4.01 87 1012.8
20260507220509 24 266 3.2 14.5 0.00 4.01 4.01 88 1012.7
20260507220029 24 309 6.4 14.5 0.00 4.01 4.01 87 1012.7
20260507215507 25 285 1.6 11.3 0.00 4.01 4.01 88 1012.7
20260507215008 25 331 1.6 6.4 0.00 4.01 4.01 89 1012.8
20260507214521 24 245 0.0 12.9 0.00 4.01 4.01 92 1012.9
20260507214004 24 268 3.2 14.5 0.00 4.01 4.01 91 1012.9
20260507213503 24 311 6.4 14.5 0.00 4.01 4.01 90 1012.8
20260507213004 24 286 4.8 12.9 0.00 4.01 4.01 91 1012.9
20260507212504 24 275 6.4 12.9 0.00 4.01 4.01 91 1012.8
20260507212004 24 277 1.6 6.4 0.00 4.01 4.01 92 1012.7
20260507211511 24 283 1.6 4.8 0.00 4.01 4.01 92 1012.8
20260507211006 24 302 1.6 6.4 0.00 4.01 4.01 91 1012.7
20260507210506 24 276 1.6 22.5 0.00 4.01 4.01 91 1012.8
20260507210013 24 272 6.4 22.5 0.00 4.01 4.01 90 1012.6
20260507205503 24 229 4.8 11.3 0.00 4.01 4.01 91 1012.7
20260507205006 24 269 3.2 11.3 0.00 4.01 4.01 92 1012.7
20260507204519 24 224 1.6 6.4 0.00 4.01 4.01 93 1012.7
20260507204007 24 314 0.0 6.4 0.00 4.01 4.01 94 1012.5
20260507203505 23 64 0.0 6.4 0.00 4.01 4.01 94 1012.6
20260507203002 23 236 0.0 0.0 0.00 4.01 4.01 94 1012.9
20260507202502 23 223 0.0 0.0 0.00 4.01 4.01 94 1012.8
20260507202002 23 223 0.0 0.0 0.00 4.01 4.01 94 1012.9
20260507201507 23 223 0.0 0.0 0.00 4.01 4.01 94 1012.9
20260507201002 23 173 0.0 0.0 0.00 4.01 4.01 94 1012.7
20260507200503 23 238 0.0 0.0 0.00 4.01 4.01 94 1012.7
20260507200012 23 182 0.0 0.0 0.00 4.01 4.01 94 1013.0
20260507195504 23 341 0.0 0.0 0.00 4.01 4.01 94 1013.0
20260507195006 23 341 0.0 0.0 0.00 4.01 4.01 94 1013.0
20260507194518 23 341 0.0 0.0 0.00 4.01 4.01 94 1013.3
20260507194006 23 341 0.0 6.4 0.03 4.01 4.01 94 1013.3
20260507193506 23 314 1.6 6.4 0.03 4.01 4.01 94 1013.4
20260507193024 23 344 3.2 6.4 0.03 4.01 4.01 94 1013.5
20260507192502 23 331 0.0 3.2 0.03 4.01 4.01 93 1013.4
20260507192007 23 326 0.0 3.2 0.03 4.01 4.01 94 1013.1
20260507191506 23 314 1.6 4.8 0.03 4.01 4.01 94 1013.2
20260507191001 22 243 0.0 4.8 0.03 4.01 4.01 94 1013.1
20260507190505 22 277 0.0 3.2 0.03 4.01 4.01 94 1013.3
20260507190012 22 332 0.0 3.2 0.03 4.01 4.01 94 1013.2
20260507185502 22 332 1.6 4.8 0.03 4.01 4.01 94 1013.3
20260507185010 22 260 0.0 4.8 0.03 4.01 4.01 94 1013.4
20260507184515 22 300 0.0 4.8 0.03 4.01 4.01 93 1013.7
20260507184003 22 282 0.0 3.2 0.00 3.99 3.99 94 1013.5
20260507183508 22 261 1.6 6.4 0.00 3.99 3.99 94 1013.8
20260507183034 22 243 1.6 6.4 0.00 3.99 3.99 94 1013.9
20260507182507 22 184 0.0 4.8 0.00 3.99 3.99 94 1014.0
20260507182008 22 290 0.0 3.2 0.00 3.99 3.99 94 1014.2
20260507181505 22 291 0.0 8.0 0.00 3.99 3.99 95 1014.0
20260507181004 22 257 0.0 8.0 0.00 3.99 3.99 94 1014.3
20260507180503 22 173 1.6 8.0 0.00 3.99 3.99 95 1014.3
20260507180008 22 236 3.2 11.3 0.00 3.99 3.99 96 1014.5
20260507175505 22 191 1.6 12.9 0.00 3.99 3.99 95 1014.2
20260507175003 21 155 8.0 12.9 0.03 3.99 3.99 95 1014.0
20260507174516 21 184 3.2 6.4 0.05 3.99 3.99 96 1014.4
20260507174006 21 173 3.2 11.3 0.10 3.99 3.99 95 1014.4
20260507173513 21 198 3.2 11.3 0.18 3.99 3.99 96 1014.4
20260507173017 21 169 3.2 11.3 0.20 3.99 3.99 96 1014.5
20260507172507 21 231 3.2 8.0 0.20 3.99 3.99 96 1014.6
20260507172007 21 201 4.8 8.0 0.25 3.99 3.99 95 1014.3
20260507171525 21 202 3.2 8.0 0.61 3.99 3.99 97 1014.7
20260507171008 21 199 1.6 6.4 0.91 3.99 3.99 97 1014.6
20260507170502 20 198 1.6 12.9 1.22 3.99 3.99 96 1014.7
20260507170010 20 230 6.4 11.3 1.32 3.99 3.99 95 1014.7
20260507165502 20 197 1.6 4.8 1.37 3.99 3.99 95 1014.5
20260507165003 20 219 1.6 9.7 1.37 3.96 3.96 95 1014.2
20260507164514 20 245 0.0 14.5 2.57 3.94 3.94 95 1014.6
20260507164003 20 301 6.4 14.5 3.89 3.89 3.89 94 1014.7
20260507163502 20 96 0.0 11.3 3.81 3.81 3.81 94 1015.5
20260507163018 20 213 1.6 27.4 3.78 3.78 3.78 94 1015.7
20260507162507 20 227 9.7 35.4 3.78 3.78 3.78 93 1015.4
20260507162007 21 194 20.9 35.4 3.73 3.73 3.73 94 1015.0
20260507161538 21 219 3.2 12.9 3.38 3.38 3.38 94 1015.5
20260507161008 21 182 3.2 12.9 3.07 3.07 3.07 94 1015.8
20260507160510 21 180 0.0 9.7 2.77 2.77 2.77 94 1015.4
20260507160034 21 210 0.0 19.3 2.64 2.64 2.64 93 1014.9
20260507155503 21 217 4.8 30.6 2.62 2.62 2.62 93 1014.9
20260507155007 22 162 12.9 37.0 2.59 2.59 2.59 92 1014.6
20260507154004 23 302 6.4 11.3 0.00 0.00 0.00 91 1016.0
20260507153504 23 5 1.6 4.8 0.00 0.00 0.00 90 1014.9
20260507153015 23 40 3.2 6.4 0.00 0.00 0.00 90 1014.4
20260507152507 23 85 3.2 6.4 0.00 0.00 0.00 90 1014.1
20260507152008 23 94 1.6 4.8 0.00 0.00 0.00 89 1014.1
20260507151534 23 165 0.0 6.4 0.00 0.00 0.00 89 1014.4
20260507151006 23 80 3.2 6.4 0.00 0.00 0.00 88 1014.1
20260507150507 23 88 3.2 6.4 0.00 0.00 0.00 88 1013.9
20260507150024 23 41 3.2 8.0 0.00 0.00 0.00 87 1014.2
20260507145507 23 38 3.2 16.1 0.00 0.00 0.00 86 1014.4
20260507145010 23 69 4.8 16.1 0.00 0.00 0.00 84 1014.5
20260507144510 24 310 8.0 16.1 0.00 0.00 0.00 86 1014.6
20260507144008 24 317 4.8 11.3 0.00 0.00 0.00 88 1014.6
20260507143505 24 72 3.2 9.7 0.00 0.00 0.00 88 1014.5
20260507143015 24 222 1.6 8.0 0.00 0.00 0.00 88 1014.3
20260507142504 25 138 1.6 6.4 0.00 0.00 0.00 88 1014.2
20260507142008 25 252 1.6 6.4 0.00 0.00 0.00 88 1014.2
20260507141521 25 184 0.0 8.0 0.00 0.00 0.00 88 1014.3
20260507141012 25 104 1.6 9.7 0.00 0.00 0.00 88 1014.1
20260507140509 25 179 4.8 9.7 0.00 0.00 0.00 88 1013.9
20260507140026 25 188 4.8 11.3 0.00 0.00 0.00 88 1014.0
20260507135508 25 159 1.6 11.3 0.00 0.00 0.00 88 1014.2
20260507135009 25 196 1.6 8.0 0.00 0.00 0.00 88 1014.4
20260507134536 25 30 1.6 8.0 0.00 0.00 0.00 88 1014.5
20260507134003 25 234 3.2 6.4 0.00 0.00 0.00 88 1014.4
20260507133505 25 234 1.6 6.4 0.00 0.00 0.00 89 1014.2
20260507133014 24 212 3.2 11.3 0.00 0.00 0.00 89 1014.4
20260507132507 24 240 3.2 11.3 0.00 0.00 0.00 89 1014.3
20260507132010 24 289 1.6 4.8 0.00 0.00 0.00 90 1014.1
20260507131525 24 336 0.0 9.7 0.00 0.00 0.00 90 1014.3
20260507131005 24 227 1.6 9.7 0.00 0.00 0.00 90 1014.3
20260507130508 24 263 1.6 11.3 0.00 0.00 0.00 90 1014.4
20260507130029 23 215 4.8 16.1 0.00 0.00 0.00 90 1014.2
20260507125509 23 185 3.2 16.1 0.00 0.00 0.00 90 1014.2
20260507125007 23 180 6.4 16.1 0.00 0.00 0.00 90 1014.1
20260507124525 23 188 4.8 12.9 0.00 0.00 0.00 90 1014.1
20260507124010 23 265 4.8 12.9 0.00 0.00 0.00 90 1014.2
20260507123510 23 174 4.8 11.3 0.00 0.00 0.00 90 1014.0
20260507123019 23 162 1.6 14.5 0.00 0.00 0.00 90 1014.0
20260507122504 23 189 3.2 14.5 0.00 0.00 0.00 90 1014.0
20260507122012 23 193 3.2 12.9 0.00 0.00 0.00 90 1013.8
20260507121516 23 178 8.0 12.9 0.00 0.00 0.00 90 1013.8
20260507121004 23 194 3.2 14.5 0.00 0.00 0.00 90 1013.8
20260507120509 23 169 3.2 16.1 0.00 0.00 0.00 90 1013.9
20260507120020 23 177 6.4 16.1 0.00 0.00 0.00 90 1013.8
20260507115505 23 198 6.4 11.3 0.00 0.00 0.00 90 1013.6
20260507115007 23 222 4.8 17.7 0.00 0.00 0.00 90 1013.7
20260507114529 23 203 4.8 17.7 0.00 0.00 0.00 90 1013.6
20260507114007 23 239 3.2 14.5 0.00 0.00 0.00 90 1013.5
20260507113504 23 161 3.2 14.5 0.00 0.00 0.00 90 1013.3
20260507113007 23 173 8.0 20.9 0.00 0.00 0.00 90 1012.9
20260507112504 23 202 4.8 20.9 0.00 0.00 0.00 90 1012.9
20260507112004 23 182 4.8 22.5 0.00 0.00 0.00 90 1013.0
20260507111521 23 194 8.0 20.9 0.00 0.00 0.00 90 1012.9
20260507111003 23 180 9.7 19.3 0.00 0.00 0.00 90 1012.7
20260507110506 23 201 4.8 16.1 0.00 0.00 0.00 90 1012.4
20260507110022 23 178 6.4 20.9 0.00 0.00 0.00 90 1012.4
20260507105508 23 222 8.0 20.9 0.00 0.00 0.00 90 1012.3
20260507105005 23 223 6.4 19.3 0.00 0.00 0.00 90 1012.4
20260507104526 23 181 9.7 19.3 0.00 0.00 0.00 90 1012.3
20260507104004 23 197 6.4 17.7 0.00 0.00 0.00 90 1012.2
20260507103504 23 187 8.0 17.7 0.00 0.00 0.00 90 1012.5
20260507103009 23 169 4.8 16.1 0.00 0.00 0.00 90 1012.4
20260507102504 23 188 3.2 16.1 0.00 0.00 0.00 90 1012.5
20260507102004 23 197 1.6 16.1 0.00 0.00 0.00 90 1012.3
20260507101520 23 163 3.2 11.3 0.00 0.00 0.00 90 1012.3
20260507101004 23 208 1.6 11.3 0.00 0.00 0.00 90 1012.4
20260507100504 23 188 3.2 11.3 0.00 0.00 0.00 90 1012.4
20260507100021 23 246 4.8 16.1 0.00 0.00 0.00 90 1012.4
20260507095507 23 184 4.8 16.1 0.00 0.00 0.00 90 1012.3
20260507095007 23 184 1.6 8.0 0.00 0.00 0.00 90 1012.0
20260507094525 23 220 4.8 12.9 0.00 0.00 0.00 90 1011.9
20260507094006 23 197 3.2 12.9 0.00 0.00 0.00 90 1011.8
20260507093508 23 180 3.2 16.1 0.00 0.00 0.00 90 1011.8
20260507093008 23 187 3.2 16.1 0.00 0.00 0.00 90 1011.7
20260507092503 23 223 4.8 11.3 0.00 0.00 0.00 90 1011.8
20260507092003 23 199 3.2 9.7 0.00 0.00 0.00 90 1011.9
20260507091514 23 211 3.2 9.7 0.00 0.00 0.00 90 1011.9
20260507091003 23 246 3.2 11.3 0.00 0.00 0.00 90 1011.9
20260507090504 23 204 4.8 12.9 0.00 0.00 0.00 90 1012.0
20260507090020 23 217 1.6 12.9 0.00 0.00 0.00 90 1012.1
20260507085506 23 247 1.6 8.0 0.00 0.00 0.00 90 1012.3
20260507085007 23 192 3.2 11.3 0.00 0.00 0.00 90 1012.3
20260507084532 23 237 0.0 11.3 0.00 0.00 0.00 90 1012.3
20260507084009 23 233 3.2 9.7 0.00 0.00 0.00 91 1012.3
20260507083508 23 284 1.6 17.7 0.00 0.00 0.00 91 1012.3
20260507083031 23 254 3.2 19.3 0.00 0.00 0.00 91 1012.3
20260507082507 23 165 3.2 19.3 0.00 0.00 0.00 91 1012.2
20260507082004 23 231 4.8 12.9 0.00 0.00 0.00 91 1012.3
20260507081515 23 257 3.2 12.9 0.00 0.00 0.00 91 1012.4
20260507081004 23 217 3.2 16.1 0.00 0.00 0.00 91 1012.4
20260507080506 23 188 6.4 16.1 0.00 0.00 0.00 91 1012.5
20260507080015 23 175 4.8 11.3 0.00 0.00 0.00 91 1012.4
20260507075503 23 173 3.2 12.9 0.00 0.00 0.00 91 1012.5
20260507075006 23 186 4.8 14.5 0.00 0.00 0.00 91 1012.4
20260507074537 23 173 6.4 14.5 0.00 0.00 0.00 91 1012.5
20260507074006 23 198 4.8 17.7 0.00 0.00 0.00 91 1012.4
20260507073507 23 221 6.4 17.7 0.00 0.00 0.00 91 1012.5
20260507073024 23 174 4.8 16.1 0.00 0.00 0.00 91 1012.6
20260507072509 23 204 8.0 14.5 0.00 0.00 0.00 91 1012.7
20260507072011 23 200 1.6 12.9 0.00 0.00 0.00 91 1012.9
20260507071525 23 286 1.6 11.3 0.00 0.00 0.00 91 1012.9
20260507071004 22 319 1.6 11.3 0.00 0.00 0.00 91 1013.1
20260507070504 22 139 3.2 9.7 0.00 0.00 0.00 91 1013.1
20260507070016 22 175 3.2 9.7 0.00 0.00 0.00 91 1013.1
20260507065503 22 190 3.2 11.3 0.00 0.00 0.00 91 1013.0
20260507065004 22 190 4.8 17.7 0.00 0.00 0.00 91 1012.9
20260507064521 22 191 8.0 16.1 0.00 0.00 0.00 92 1012.8
20260507064007 22 209 3.2 14.5 0.00 0.00 0.00 92 1012.6
20260507063508 22 169 8.0 19.3 0.00 0.00 0.00 92 1012.6
20260507063028 22 150 8.0 19.3 0.00 0.00 0.00 92 1012.7
20260507062509 22 207 11.3 17.7 0.00 0.00 0.00 92 1012.9
20260507062011 22 159 9.7 17.7 0.00 0.00 0.00 92 1013.1
20260507061526 22 204 4.8 19.3 0.00 0.00 0.00 92 1013.1
20260507061009 22 171 9.7 32.2 0.00 0.00 0.00 92 1013.1
20260507060509 22 148 12.9 32.2 0.00 0.00 0.00 92 1012.9
20260507060015 22 158 11.3 30.6 0.00 0.00 0.00 92 1013.0
20260507055503 22 155 12.9 30.6 0.00 0.00 0.00 92 1012.9
20260507055004 22 168 14.5 30.6 0.00 0.00 0.00 92 1013.0
20260507054519 22 153 16.1 25.7 0.00 0.00 0.00 92 1012.9
20260507054004 22 175 12.9 25.7 0.00 0.00 0.00 91 1013.0
20260507053505 22 155 12.9 20.9 0.00 0.00 0.00 91 1013.3
20260507053024 22 198 8.0 14.5 0.00 0.00 0.00 91 1013.5
20260507052512 22 180 6.4 19.3 0.00 0.00 0.00 91 1013.4
20260507052008 22 200 8.0 20.9 0.00 0.00 0.00 91 1013.5
20260507051537 22 160 8.0 20.9 0.00 0.00 0.00 91 1013.4
20260507051009 22 172 12.9 20.9 0.00 0.00 0.00 91 1013.3
20260507050506 22 154 11.3 19.3 0.00 0.00 0.00 91 1013.3
20260507050028 22 182 8.0 16.1 0.00 0.00 0.00 91 1013.5
20260507045510 22 157 6.4 16.1 0.00 0.00 0.00 91 1013.7
20260507045004 22 204 6.4 16.1 0.00 0.00 0.00 91 1013.8
20260507044517 22 166 6.4 16.1 0.00 0.00 0.00 90 1013.7
20260507044006 22 199 6.4 16.1 0.00 0.00 0.00 90 1013.9
20260507043506 22 182 8.0 16.1 0.00 0.00 0.00 90 1013.9
20260507043022 22 200 8.0 12.9 0.00 0.00 0.00 90 1014.0
20260507042506 22 208 4.8 16.1 0.00 0.00 0.00 90 1014.1
20260507042007 22 174 9.7 22.5 0.00 0.00 0.00 90 1014.0